Location: Eyeline Observatory
(43.2182°N, 78.8632°W)
Time: 05:02:36
(UTC-05:00)

Vanguard 2 - Pass Details

Date: 30 January 2018
Orbit: 553 x 2939 km, 32.9° (Epoch: 19 February)

Event Time Altitude Azimuth Distance (km) Brightness Sun altitude
Rises 00:10:43 0° 209° (SSW) 2,810 - -64.2°
Reaches altitude 10° 00:13:43 10° 183° (S) 2,079 - -64.3°
Maximum altitude 00:16:19 15° 149° (SSE) 1,977 - -64.3°
Drops below altitude 10° 00:19:23 10° 117° (ESE) 2,555 - -64.4°
Sets 00:23:48 0° 96° (E) 3,964 - -64.4°
